{"data":{"norad_id":67511,"intl_designator":"2026-012U","name":"STARLINK-36540","alt_names":[],"object_type":"PAYLOAD","status":"ACTIVE","operator":null,"country":"US","launch_date":"2026-01-18","launch_site_code":"AFETR","launch_vehicle":null,"mission":null,"orbit_class":"UNKNOWN","rcs_meters":null,"size_class":null,"mass_kg":null,"dimensions":null,"purposes":["comms"],"wikipedia_slug":null,"has_3d_model":false,"image_url":null,"decayed_at":null,"tle_current":{"epoch":"2026-09-19T03:17:52.319040Z","epoch_age_seconds":190034,"freshness":"STALE","line1":"1 67511U 26012U   26262.13741110  .00000329  00000+0  21476-4 0  9994","line2":"2 67511  42.9994 302.2366 0000828 156.6150 203.4740 15.27574447 37346","mean_motion":15.27574447,"eccentricity":8.28e-5,"inclination_deg":42.9994,"raan_deg":302.2366,"arg_perigee_deg":156.615,"mean_anomaly_deg":203.474,"bstar":2.1476e-5,"rev_number":3734,"period_min":94.267091389753,"perigee_km":482.49761618418,"apogee_km":483.63383135523,"semimajor_km":6861.2027237697,"source":"CELESTRAK","updated_at":"2026-09-20T09:00:43.561464Z"}}}